Regional Weather Roundup
Issued by NWS

Home | Current Version | Previous Version | Graphics & Text | Print | Product List | Glossary On
Versions: 1 2 3 4 5 6 7 8 9 10 11 12 13 14 15 16 17 18 19 20 21 22 23 24 25 26 27 28 29 30 31 32 33 34 35 36 37 38 39 40 41 42 43 44 45 46 47 48 49 50
706
ASUS43 KIND 221209
RWRIN

WEATHER ROUNDUP FOR INDIANA
NATIONAL WEATHER SERVICE INDIANAPOLIS IN
800 AM EDT THU JUN 22 2017

NOTE: "FAIR" INDICATES FEW OR NO CLOUDS BELOW 12,000 FEET WITH NO
SIGNIFICANT WEATHER AND/OR OBSTRUCTIONS TO VISIBILITY.

* - STATION DOES NOT REPORT WEATHER SUCH AS PRECIPITATION OR FOG.

+ - STATION NOT QUALITY CONTROLLED BY THE NATIONAL WEATHER SERVICE.
    USE DATA WITH CAUTION...ESPECIALLY DEWPOINT AND RELATIVE
    HUMIDITY OBSERVATIONS.

INZ001>003-010>013-019-020-221300-
NORTHWEST INDIANA

CITY           SKY/WX    TMP DP  RH WIND       PRES   REMARKS
GARY /AIRPORT/ PTSUNNY   77  66  69 S8        29.89R
KNOX *+        CLOUDY    72  61  68 SW7       29.92R
LA PORTE +     CLOUDY    74  67  79 SW7       29.92R
6HR MIN TEMP:  69; 6HR MAX TEMP:  74;

MICHIGAN CITY+ CLOUDY    73  64  73 SW8       29.89F
MONTICELLO +   CLOUDY    73  68  83 SW8       29.92S
6HR MIN TEMP:  73; 6HR MAX TEMP:  75;

RENSSELAER +   CLOUDY    73  66  78 S12       29.91R
VALPARAISO     CLOUDY    76  68  76 SW10      29.91R
6HR MIN TEMP:  72; 6HR MAX TEMP:  77;


$$

LMZ046-743>745-221300-
SOUTHERN LAKE MICHIGAN

STATION/POSITION TIME  TEMP    WIND        PRES    WAVE
                       AIR SEA DIR/SP/G            HT
                 (UTC) (F)     (DEG/KT/KT) (MB)    (FT)
BURNS HARBOR     1140   76     210/ 13/ 17 1012.5R
MICHIGAN CITY    1140   76     190/ 14/ 17   N/A
5NW MICH CITY    1200   73 68  210/ 12/ 14   N/A     1

$$

INZ004-005-014>016-021>024-221300-
NORTH CENTRAL INDIANA

CITY           SKY/WX    TMP DP  RH WIND       PRES   REMARKS
ELKHART        CLOUDY    73  66  78 SW5       29.92R
GOSHEN         CLOUDY    74  66  76 SW7       29.93R
6HR MIN TEMP:  69; 6HR MAX TEMP:  74;

LOGANSPORT +   CLOUDY    72  68  88 SW7       29.94S
PERU/GRISSOM   CLOUDY    74  71  89 SW9       29.93R
6HR MIN TEMP:  72; 6HR MAX TEMP:  74;

ROCHESTER +    CLOUDY    75  68  78 SW5       29.93S
SOUTH BEND     CLOUDY    74  68  81 SW8       29.92R
6HR MIN TEMP:  71; 6HR MAX TEMP:  74;

WARSAW +       PTSUNNY   73  66  78 SW7       29.93R

$$

INZ006>009-017-018-025>027-221300-
NORTHEAST INDIANA

CITY           SKY/WX    TMP DP  RH WIND       PRES   REMARKS
AUBURN +       MOSUNNY   73  68  83 SW3       29.95R
FORT WAYNE     PTSUNNY   75  66  73 SW14      29.94R
6HR MIN TEMP:  69; 6HR MAX TEMP:  75;

KENDALLVILLE + CLOUDY    73  68  83 SW8       29.94R

$$

INZ028-029-035-036-043>045-051>053-221300-
WEST CENTRAL INDIANA

CITY           SKY/WX    TMP DP  RH WIND       PRES   REMARKS
CRAWFORDSVL +  MOSUNNY  -36 -36  97 S8        29.96R WCI -58
6HR MIN TEMP: -37; 6HR MAX TEMP: -24;

GREENCASTLE +  SUNNY     72  66  83 S3        29.98S
LAFAYETTE      CLOUDY    73  69  87 SW7       29.93R
6HR MIN TEMP:  72; 6HR MAX TEMP:  74;

TERRE HAUTE    MOSUNNY   74  67  78 S9        29.96S
6HR MIN TEMP:  71; 6HR MAX TEMP:  76;


$$

INZ030>032-037>040-046>048-054>057-064-065-221300-
CENTRAL INDIANA

CITY           SKY/WX    TMP DP  RH WIND       PRES   REMARKS
CP ATTERBURY + CLOUDY    72  68  88 S5        29.99R
COLUMBUS       PTSUNNY   72  66  83 S7        29.99S
FRANKFORT +    PTSUNNY   74  70  86 SW5       29.97R
6HR MIN TEMP:  73; 6HR MAX TEMP:  76;

GREENWOOD *+   MOSUNNY   73  66  80 SW6       29.99R
INDIANAPOLIS   PTSUNNY   74  68  81 S12       29.97R
6HR MIN TEMP:  71; 6HR MAX TEMP:  76;

-EAGLE CREEK   SUNNY     74  67  78 S7        29.96S
6HR MIN TEMP:  72; 6HR MAX TEMP:  77;

KOKOMO +       MOSUNNY   74  68  81 SW10      29.96R
6HR MIN TEMP:  73; 6HR MAX TEMP:  77;

MARION +       MOSUNNY   72  66  83 SW8       29.96S
MT COMFORT *+  CLOUDY    72  66  83 S8        29.98S
SHELBYVILLE    MOSUNNY   74  67  78 S10       29.98R
6HR MIN TEMP:  72; 6HR MAX TEMP:  74;

ZIONSVILLE +   MOSUNNY   73  67  83 SW8       29.97R
6HR MIN TEMP:  71; 6HR MAX TEMP:  75;


$$

INZ033-034-041-042-049-050-058-059-221300-
EAST CENTRAL INDIANA

CITY           SKY/WX    TMP DP  RH WIND       PRES   REMARKS
MUNCIE         MOSUNNY   75  67  76 SW8       29.97S
6HR MIN TEMP:  74; 6HR MAX TEMP:  77;

RICHMOND +     CLOUDY    72  66  83 S9        30.00F

$$

INZ060-061-067>069-081>083-085>088-221300-
SOUTHWEST INDIANA

CITY           SKY/WX    TMP DP  RH WIND       PRES   REMARKS
EVANSVILLE     PTSUNNY   74  68  81 CALM      29.97S
6HR MIN TEMP:  72; 6HR MAX TEMP:  75;

HUNTINGBURG *+ CLOUDY    73  69  87 SE5       29.98F
6HR MIN TEMP:  71; 6HR MAX TEMP:  74;

WASHINGTON +   PTSUNNY   71  68  89 S5        29.97S
6HR MIN TEMP:  68; 6HR MAX TEMP:  72;


$$

INZ062-063-066-070>080-084-089>092-221300-
SOUTH CENTRAL AND SOUTHEAST INDIANA

CITY           SKY/WX    TMP DP  RH WIND       PRES   REMARKS
BEDFORD +      PTSUNNY   72  66  83 S6        29.99S
BLOOMINGTON    PTSUNNY   73  66  78 S6        29.98S
6HR MIN TEMP:  68; 6HR MAX TEMP:  74;

MADISON *+     PTSUNNY   73  68  83 S5        30.04S
NORTH VERNON + CLOUDY    72  66  83 S7        30.01S
SEYMOUR +      PTSUNNY   73  68  83 S7        30.00R

$$





USA.gov is the U.S. government's official web portal to all federal, state and local government web resources and services.